When you browse on this site, cookies collect data to enhance your experience and personalize the content and advertising you see.
Visit our Privacy Policy to learn more. By continuing to use the site, you agree to this use of cookies and data.
  • In Romania
  • List of Countries
  • For 7 days
  • Water Temperature
  • Satellite Maps
  • Weather Map
  • Weather Widgets
  • user-avatar
    Login

    Hourly Weather Klin

    Today, 22 February, Friday

    Time Temperature Precipitation Wind Pressure Humidity
    00:00 -14°C° 0.1 mm 6 mps 742 mmHg 79%
    01:00 -14°C° 0.1 mm 6 mps 742 mmHg 80%
    02:00 -14°C° 0 mm 6 mps 743 mmHg 81%
    03:00 -15°C° 0.2 mm 6 mps 743 mmHg 81%
    04:00 -15°C° 0.2 mm 7 mps 744 mmHg 81%
    05:00 -15°C° 0.2 mm 7 mps 744 mmHg 81%
    06:00 -15°C° 0.1 mm 7 mps 745 mmHg 79%
    07:00 -15°C° 0.1 mm 7 mps 746 mmHg 77%
    08:00 -15°C° 0 mm 7 mps 747 mmHg 75%
    09:00 -14°C° 0 mm 7 mps 747 mmHg 73%
    10:00 -13°C° 0 mm 7 mps 748 mmHg 72%
    11:00 -13°C° 0 mm 8 mps 749 mmHg 70%
    12:00 -12°C° 0 mm 7 mps 750 mmHg 70%
    13:00 -12°C° 0 mm 7 mps 750 mmHg 70%
    14:00 -11°C° 0 mm 7 mps 751 mmHg 69%
    15:00 -11°C° 0 mm 6 mps 752 mmHg 72%
    16:00 -11°C° 0 mm 6 mps 753 mmHg 74%
    17:00 -11°C° 0 mm 5 mps 754 mmHg 77%
    18:00 -12°C° 0 mm 5 mps 754 mmHg 80%
    19:00 -12°C° 0 mm 5 mps 755 mmHg 83%
    20:00 -12°C° 0 mm 4 mps 755 mmHg 86%
    21:00 -12°C° 0 mm 4 mps 756 mmHg 88%
    22:00 -14°C° 0 mm 4 mps 756 mmHg 89%
    23:00 -14°C° 0 mm 3 mps 757 mmHg 91%

    Tomorrow, 23 February, Saturday

    Time Temperature Precipitation Wind Pressure Humidity
    00:00 -14°C° 0 mm 3 mps 757 mmHg 91%
    01:00 -15°C° 0 mm 3 mps 757 mmHg 91%
    02:00 -15°C° 0 mm 2 mps 758 mmHg 90%
    03:00 -15°C° 0 mm 2 mps 758 mmHg 89%
    04:00 -15°C° 0 mm 2 mps 758 mmHg 88%
    05:00 -15°C° 0 mm 2 mps 758 mmHg 87%
    06:00 -14°C° 0 mm 2 mps 758 mmHg 84%
    07:00 -14°C° 0 mm 3 mps 757 mmHg 80%
    08:00 -13°C° 0 mm 3 mps 757 mmHg 77%
    09:00 -12°C° 0 mm 3 mps 756 mmHg 73%
    10:00 -10°C° 0 mm 4 mps 756 mmHg 68%
    11:00 -9°C° 0 mm 4 mps 755 mmHg 64%
    12:00 -9°C° 0.3 mm 4 mps 754 mmHg 72%
    13:00 -10°C° 0.3 mm 5 mps 753 mmHg 81%
    14:00 -10°C° 0.3 mm 5 mps 753 mmHg 89%
    15:00 -10°C° 0.9 mm 5 mps 752 mmHg 90%
    16:00 -8°C° 0.9 mm 5 mps 751 mmHg 90%
    17:00 -8°C° 0.9 mm 5 mps 750 mmHg 91%
    18:00 -7°C° 0.5 mm 5 mps 750 mmHg 91%
    19:00 -6°C° 0.5 mm 5 mps 749 mmHg 90%
    20:00 -6°C° 0.5 mm 5 mps 749 mmHg 90%
    21:00 -5°C° 0.3 mm 5 mps 748 mmHg 90%
    22:00 -2°C° 0.3 mm 5 mps 748 mmHg 90%
    23:00 -1°C° 0.3 mm 5 mps 748 mmHg 90%

    Day after tomorrow, 24 February, Sunday

    Time Temperature Precipitation Wind Pressure Humidity
    00:00 -1°C° 0.2 mm 4 mps 748 mmHg 91%
    01:00 -1°C° 0.2 mm 4 mps 748 mmHg 92%
    02:00 -1°C° 0.2 mm 4 mps 748 mmHg 93%
    03:00 -1°C° 0 mm 4 mps 748 mmHg 93%
    04:00 -1°C° 0 mm 4 mps 748 mmHg 94%
    05:00 -1°C° 0 mm 4 mps 748 mmHg 94%
    06:00 -1°C° 0 mm 4 mps 748 mmHg 94%
    07:00 -1°C° 0 mm 4 mps 749 mmHg 95%
    08:00 -1°C° 0 mm 4 mps 749 mmHg 95%
    09:00 -1°C° 0 mm 4 mps 749 mmHg 95%
    10:00 -1°C° 0 mm 4 mps 749 mmHg 96%
    11:00 0°C° 0 mm 4 mps 750 mmHg 96%
    12:00 +1°C° 0 mm 3 mps 750 mmHg 96%
    13:00 +1°C° 0 mm 3 mps 750 mmHg 96%
    14:00 +1°C° 0 mm 3 mps 750 mmHg 97%
    15:00 +1°C° 0 mm 2 mps 749 mmHg 96%
    16:00 +1°C° 0 mm 2 mps 749 mmHg 96%
    17:00 +1°C° 0 mm 2 mps 749 mmHg 95%
    18:00 +1°C° 0 mm 2 mps 749 mmHg 95%
    19:00 +1°C° 0 mm 2 mps 749 mmHg 95%
    20:00 -1°C° 0 mm 2 mps 749 mmHg 95%
    21:00 +1°C° 0.1 mm 2 mps 748 mmHg 95%
    22:00 +1°C° 0.1 mm 2 mps 748 mmHg 95%
    23:00 +1°C° 0.1 mm 2 mps 747 mmHg 96%

    25 February, Monday

    Time Temperature Precipitation Wind Pressure Humidity
    00:00 0°C° 0.2 mm 3 mps 747 mmHg 95%
    01:00 0°C° 0.2 mm 3 mps 746 mmHg 95%
    02:00 -1°C° 0.2 mm 4 mps 746 mmHg 94%
    03:00 -1°C° 0.2 mm 4 mps 745 mmHg 94%
    04:00 -1°C° 0.2 mm 4 mps 745 mmHg 93%
    05:00 0°C° 0.2 mm 5 mps 745 mmHg 92%
    06:00 -1°C° 0.1 mm 5 mps 745 mmHg 90%
    07:00 -1°C° 0.1 mm 5 mps 745 mmHg 88%
    08:00 -2°C° 0.1 mm 6 mps 745 mmHg 86%
    09:00 -1°C° 0 mm 5 mps 745 mmHg 87%
    10:00 -1°C° 0 mm 5 mps 745 mmHg 87%
    11:00 -1°C° 0 mm 5 mps 745 mmHg 87%
    12:00 -2°C° 0 mm 6 mps 744 mmHg 86%
    13:00 -2°C° 0 mm 6 mps 744 mmHg 85%
    14:00 -2°C° 0 mm 6 mps 743 mmHg 85%
    15:00 -2°C° 0.1 mm 6 mps 743 mmHg 84%
    16:00 -3°C° 0.1 mm 6 mps 742 mmHg 84%
    17:00 -2°C° 0.1 mm 5 mps 742 mmHg 83%
    18:00 -2°C° 0.1 mm 6 mps 742 mmHg 83%
    19:00 -2°C° 0.1 mm 6 mps 742 mmHg 84%
    20:00 -2°C° 0.1 mm 6 mps 741 mmHg 84%
    21:00 -2°C° 0.1 mm 6 mps 741 mmHg 83%
    22:00 -2°C° 0.1 mm 6 mps 741 mmHg 83%
    23:00 -1°C° 0.1 mm 5 mps 741 mmHg 83%

    26 February, Tuesday

    Time Temperature Precipitation Wind Pressure Humidity
    00:00 -2°C° 0 mm 5 mps 741 mmHg 84%
    01:00 -2°C° 0 mm 5 mps 741 mmHg 86%
    02:00 -2°C° 0 mm 5 mps 741 mmHg 87%
    03:00 -3°C° 0 mm 4 mps 741 mmHg 89%
    04:00 -2°C° 0 mm 3 mps 740 mmHg 90%
    05:00 -2°C° 0 mm 3 mps 740 mmHg 91%
    06:00 -2°C° 0 mm 2 mps 739 mmHg 92%
    07:00 -3°C° 0 mm 2 mps 738 mmHg 92%
    08:00 -3°C° 0 mm 2 mps 738 mmHg 93%
    09:00 -2°C° 0.1 mm 2 mps 737 mmHg 92%
    10:00 -2°C° 0.1 mm 2 mps 737 mmHg 92%
    11:00 0°C° 0.1 mm 1 mps 736 mmHg 91%
    12:00 +1°C° 0.2 mm 1 mps 736 mmHg 91%
    13:00 +1°C° 0.2 mm 1 mps 735 mmHg 91%
    14:00 0°C° 0.2 mm 0 mps 735 mmHg 91%
    15:00 +1°C° 0 mm 1 mps 735 mmHg 92%
    16:00 0°C° 0 mm 1 mps 735 mmHg 93%
    17:00 0°C° 0 mm 1 mps 736 mmHg 94%
    18:00 0°C° 0 mm 1 mps 736 mmHg 94%
    19:00 -3°C° 0 mm 2 mps 737 mmHg 94%
    20:00 -3°C° 0 mm 2 mps 738 mmHg 93%
    21:00 -3°C° 0 mm 2 mps 738 mmHg 93%
    22:00 -3°C° 0 mm 2 mps 739 mmHg 93%
    23:00 -4°C° 0 mm 3 mps 740 mmHg 93%

    27 February, Wednesday

    Time Temperature Precipitation Wind Pressure Humidity
    00:00 -4°C° 0 mm 3 mps 740 mmHg 93%
    01:00 -4°C° 0 mm 3 mps 741 mmHg 93%
    02:00 -4°C° 0 mm 3 mps 742 mmHg 93%
    03:00 -4°C° 0 mm 3 mps 742 mmHg 93%
    04:00 -4°C° 0 mm 3 mps 743 mmHg 93%
    05:00 -4°C° 0 mm 3 mps 743 mmHg 93%
    06:00 -4°C° 0 mm 3 mps 744 mmHg 91%
    07:00 -5°C° 0 mm 3 mps 744 mmHg 90%
    08:00 -5°C° 0 mm 3 mps 744 mmHg 88%
    09:00 -5°C° 0 mm 3 mps 745 mmHg 86%
    10:00 -4°C° 0 mm 3 mps 745 mmHg 84%
    11:00 -4°C° 0 mm 3 mps 745 mmHg 82%
    12:00 -4°C° 0 mm 3 mps 744 mmHg 81%
    13:00 -2°C° 0 mm 3 mps 744 mmHg 81%
    14:00 -2°C° 0 mm 3 mps 744 mmHg 81%
    15:00 -2°C° 0 mm 3 mps 743 mmHg 84%
    16:00 -4°C° 0 mm 3 mps 743 mmHg 87%
    17:00 -4°C° 0 mm 3 mps 742 mmHg 89%
    18:00 -5°C° 0 mm 3 mps 741 mmHg 90%
    19:00 -5°C° 0 mm 3 mps 740 mmHg 91%
    20:00 -5°C° 0 mm 3 mps 739 mmHg 91%
    21:00 -4°C° 0 mm 4 mps 738 mmHg 91%
    22:00 -4°C° 0 mm 4 mps 737 mmHg 90%
    23:00 -4°C° 0 mm 4 mps 736 mmHg 89%
    Show more